QPF
0.02 0.02 0.02 0.02 0.02 0.02 0.02 0.02 0.02 0.02 0.01 0.01 0.01 0.00 0.02 0.04 0.03 0.02 0.01 0.00 0.00 0.00 0.00 0.01 0.02 0.03 0.06 0.12 0.17 0.22 0.28 0.30 0.26 0.21 0.16 0.13 0.09 0.03
0.02 0.02 0.03 0.04 0.04 0.04 0.03 0.03 0.02 0.02 0.02 0.01 0.01 0.00 0.01 0.03 0.04 0.03 0.02 0.01 0.00 0.00 0.00 0.00 0.01 0.04 0.09 0.15 0.20 0.23 0.28 0.33 0.31 0.25 0.20 0.18 0.12 0.06
0.02 0.04 0.05 0.07 0.10 0.10 0.08 0.06 0.05 0.04 0.02 0.01 0.00 0.00 0.02 0.04 0.04 0.04 0.05 0.04 0.02 0.01 0.01 0.01 0.01 0.04 0.11 0.17 0.20 0.21 0.23 0.28 0.30 0.26 0.18 0.10 0.06 0.03
0.03 0.05 0.08 0.11 0.12 0.13 0.12 0.10 0.07 0.06 0.05 0.02 0.01 0.01 0.02 0.04 0.05 0.06 0.07 0.06 0.03 0.02 0.02 0.02 0.04 0.06 0.10 0.16 0.21 0.23 0.23 0.24 0.23 0.19 0.13 0.06 0.02 0.01
0.03 0.07 0.09 0.10 0.09 0.08 0.08 0.08 0.06 0.05 0.05 0.04 0.02 0.02 0.03 0.06 0.08 0.09 0.10 0.10 0.08 0.05 0.04 0.03 0.05 0.08 0.11 0.13 0.17 0.20 0.20 0.18 0.15 0.12 0.08 0.05 0.02 0.01
0.03 0.06 0.09 0.10 0.10 0.09 0.06 0.04 0.04 0.03 0.03 0.03 0.03 0.04 0.04 0.07 0.10 0.10 0.09 0.11 0.10 0.09 0.07 0.05 0.05 0.07 0.09 0.09 0.09 0.10 0.13 0.15 0.13 0.10 0.07 0.04 0.02 0.01
0.03 0.05 0.09 0.13 0.14 0.16 0.12 0.06 0.04 0.03 0.03 0.03 0.05 0.07 0.07 0.09 0.12 0.13 0.12 0.12 0.12 0.10 0.07 0.05 0.04 0.03 0.05 0.09 0.11 0.09 0.08 0.09 0.08 0.07 0.05 0.03 0.02 0.01
0.05 0.05 0.07 0.11 0.12 0.13 0.13 0.10 0.09 0.09 0.08 0.08 0.10 0.11 0.11 0.11 0.15 0.19 0.19 0.15 0.15 0.13 0.06 0.05 0.04 0.03 0.03 0.04 0.07 0.08 0.06 0.05 0.05 0.05 0.05 0.03 0.02 0.01
0.08 0.06 0.05 0.09 0.10 0.11 0.11 0.08 0.10 0.14 0.18 0.20 0.21 0.19 0.17 0.18 0.22 0.24 0.24 0.16 0.15 0.17 0.08 0.08 0.06 0.04 0.03 0.04 0.05 0.05 0.04 0.04 0.03 0.03 0.04 0.04 0.03 0.02
0.10 0.05 0.03 0.06 0.09 0.09 0.10 0.09 0.11 0.18 0.26 0.31 0.33 0.30 0.27 0.29 0.33 0.37 0.37 0.26 0.18 0.20 0.12 0.10 0.09 0.05 0.04 0.04 0.04 0.02 0.02 0.02 0.02 0.02 0.02 0.02 0.02 0.02
0.08 0.05 0.02 0.02 0.04 0.03 0.04 0.06 0.08 0.13 0.21 0.26 0.26 0.23 0.23 0.31 0.44 0.54 0.56 0.42 0.29 0.27 0.18 0.12 0.10 0.06 0.05 0.06 0.05 0.03 0.01 0.00 0.00 0.00 0.00 0.01 0.01 0.00
0.06 0.03 0.03 0.02 0.01 0.01 0.01 0.02 0.04 0.08 0.12 0.16 0.18 0.19 0.21 0.28 0.40 0.56 0.71 0.62 0.42 0.33 0.24 0.14 0.11 0.07 0.07 0.06 0.04 0.02 0.01 0.00 0.00 0.00 0.00 0.00 0.00 0.00
0.03 0.03 0.02 0.01 0.01 0.00 0.00 0.00 0.02 0.03 0.05 0.08 0.12 0.15 0.19 0.26 0.38 0.51 0.65 0.70 0.55 0.41 0.30 0.19 0.14 0.07 0.05 0.07 0.06 0.03 0.01 0.00 0.00 0.00 0.00 0.00 0.00 0.00
0.03 0.01 0.00 0.00 0.00 0.00 0.00 0.00 0.00 0.00 0.01 0.03 0.05 0.08 0.13 0.19 0.29 0.42 0.56 0.67 0.66 0.50 0.32 0.20 0.15 0.09 0.04 0.03 0.05 0.04 0.02 0.01 0.00 0.00 0.00 0.00 0.00 0.00
0.02 0.01 0.00 0.00 0.00 0.00 0.00 0.00 0.00 0.00 0.00 0.00 0.02 0.03 0.06 0.10 0.15 0.23 0.33 0.45 0.50 0.43 0.32 0.24 0.19 0.13 0.09 0.05 0.03 0.02 0.01 0.01 0.00 0.00 0.00 0.00 0.00 0.00
0.00 0.00 0.00 0.00 0.00 0.00 0.00 0.00 0.00 0.00 0.00 0.00 0.00 0.01 0.01 0.03 0.06 0.10 0.15 0.22 0.28 0.30 0.26 0.23 0.21 0.18 0.14 0.11 0.06 0.03 0.01 0.00 0.00 0.00 0.00 0.00 0.00 0.00
0.00 0.00 0.00 0.00 0.00 0.00 0.00 0.00 0.00 0.00 0.00 0.00 0.00 0.00 0.00 0.01 0.01 0.03 0.06 0.10 0.14 0.16 0.16 0.15 0.15 0.14 0.13 0.11 0.09 0.05 0.02 0.00 0.00 0.00 0.00 0.00 0.00 0.00
0.00 0.00 0.00 0.00 0.00 0.00 0.00 0.00 0.00 0.00 0.00 0.00 0.00 0.00 0.00 0.00 0.00 0.01 0.01 0.03 0.05 0.07 0.07 0.07 0.07 0.07 0.07 0.06 0.04 0.02 0.01 0.00 0.00 0.00 0.00 0.00 0.00 0.00
0.00 0.00 0.00 0.00 0.00 0.00 0.00 0.00 0.00 0.00 0.00 0.00 0.00 0.00 0.00 0.00 0.00 0.00 0.00 0.01 0.01 0.02 0.03 0.03 0.02 0.02 0.02 0.02 0.02 0.00 0.00 0.00 0.00 0.00 0.00 0.00 0.00 0.00
0.00 0.00 0.00 0.00 0.00 0.00 0.00 0.00 0.00 0.00 0.00 0.00 0.00 0.00 0.00 0.00 0.00 0.00 0.00 0.00 0.00 0.00 0.00 0.01 0.01 0.01 0.01 0.00 0.00 0.00 0.00 0.00 0.00 0.00 0.00 0.00 0.00 0.00
0.00 0.00 0.00 0.00 0.00 0.00 0.00 0.00 0.00 0.00 0.00 0.00 0.00 0.00 0.00 0.00 0.00 0.00 0.00 0.00 0.00 0.00 0.00 0.00 0.00 0.00 0.00 0.00 0.00 0.00 0.00 0.00 0.00 0.00 0.00 0.00 0.00 0.00
0.00 0.00 0.00 0.00 0.00 0.00 0.00 0.00 0.00 0.00 0.00 0.00 0.00 0.00 0.00 0.00 0.00 0.00 0.00 0.00 0.00 0.00 0.00 0.00 0.00 0.00 0.00 0.00 0.00 0.00 0.00 0.00 0.00 0.00 0.00 0.00 0.00 0.00
0.00 0.00 0.00 0.00 0.00 0.00 0.00 0.00 0.00 0.00 0.00 0.00 0.00 0.00 0.00 0.00 0.00 0.00 0.00 0.00 0.00 0.00 0.00 0.00 0.00 0.00 0.00 0.00 0.00 0.00 0.00 0.00 0.00 0.00 0.00 0.00 0.00 0.00
MSLP
1018.59 1017.99 1017.41 1016.78 1016.07 1015.23 1014.24 1013.13 1011.94 1010.72 1009.56 1008.52 1007.68 1007.06 1006.69 1006.53 1006.56 1006.73 1006.98 1007.26 1007.55 1007.83 1008.10 1008.37 1008.66 1009.00 1009.39 1009.87 1010.42 1011.06 1011.76 1012.53 1013.34 1014.19 1015.05 1015.91 1016.74 1017.54
1017.95 1017.29 1016.65 1015.98 1015.25 1014.41 1013.45 1012.39 1011.26 1010.13 1009.06 1008.11 1007.36 1006.82 1006.50 1006.39 1006.44 1006.60 1006.83 1007.08 1007.32 1007.55 1007.75 1007.96 1008.19 1008.48 1008.83 1009.27 1009.80 1010.43 1011.15 1011.94 1012.80 1013.71 1014.64 1015.58 1016.49 1017.36
1017.27 1016.52 1015.80 1015.08 1014.31 1013.45 1012.51 1011.50 1010.45 1009.41 1008.45 1007.62 1006.97 1006.52 1006.27 1006.20 1006.26 1006.42 1006.62 1006.82 1007.02 1007.19 1007.36 1007.52 1007.72 1007.98 1008.32 1008.75 1009.28 1009.93 1010.66 1011.49 1012.40 1013.36 1014.35 1015.35 1016.34 1017.27
1016.64 1015.82 1015.03 1014.25 1013.43 1012.57 1011.64 1010.68 1009.70 1008.77 1007.91 1007.19 1006.64 1006.27 1006.06 1006.01 1006.07 1006.19 1006.35 1006.51 1006.66 1006.80 1006.94 1007.10 1007.30 1007.58 1007.94 1008.40 1008.96 1009.64 1010.41 1011.27 1012.21 1013.21 1014.25 1015.30 1016.33 1017.31
1016.15 1015.29 1014.46 1013.63 1012.80 1011.93 1011.03 1010.11 1009.21 1008.36 1007.60 1006.97 1006.48 1006.15 1005.97 1005.90 1005.92 1005.99 1006.09 1006.19 1006.30 1006.42 1006.57 1006.76 1007.01 1007.34 1007.76 1008.29 1008.92 1009.64 1010.46 1011.35 1012.31 1013.33 1014.38 1015.45 1016.49 1017.49
1015.87 1015.01 1014.18 1013.35 1012.51 1011.66 1010.79 1009.92 1009.09 1008.31 1007.62 1007.05 1006.60 1006.27 1006.06 1005.94 1005.88 1005.87 1005.90 1005.94 1006.02 1006.13 1006.31 1006.56 1006.89 1007.32 1007.85 1008.47 1009.19 1009.97 1010.83 1011.75 1012.72 1013.73 1014.76 1015.81 1016.84 1017.83
1015.85 1015.02 1014.22 1013.42 1012.62 1011.80 1010.98 1010.17 1009.39 1008.67 1008.02 1007.48 1007.02 1006.67 1006.39 1006.18 1006.02 1005.91 1005.84 1005.82 1005.86 1005.98 1006.21 1006.54 1006.99 1007.54 1008.20 1008.94 1009.75 1010.61 1011.51 1012.44 1013.39 1014.37 1015.36 1016.36 1017.34 1018.29
1016.07 1015.32 1014.58 1013.84 1013.09 1012.33 1011.56 1010.81 1010.08 1009.41 1008.79 1008.24 1007.76 1007.34 1006.98 1006.66 1006.38 1006.14 1005.97 1005.87 1005.88 1006.01 1006.29 1006.71 1007.28 1007.98 1008.77 1009.64 1010.56 1011.48 1012.42 1013.34 1014.26 1015.18 1016.11 1017.03 1017.94 1018.82
1016.52 1015.86 1015.20 1014.53 1013.85 1013.15 1012.45 1011.75 1011.08 1010.44 1009.84 1009.28 1008.76 1008.27 1007.80 1007.36 1006.95 1006.59 1006.30 1006.12 1006.09 1006.22 1006.54 1007.05 1007.73 1008.56 1009.49 1010.48 1011.49 1012.48 1013.44 1014.36 1015.24 1016.09 1016.93 1017.75 1018.57 1019.38
1017.15 1016.58 1016.01 1015.41 1014.80 1014.17 1013.53 1012.89 1012.26 1011.66 1011.07 1010.50 1009.95 1009.39 1008.83 1008.27 1007.73 1007.24 1006.84 1006.57 1006.49 1006.61 1006.95 1007.52 1008.29 1009.22 1010.25 1011.34 1012.43 1013.48 1014.46 1015.37 1016.21 1016.99 1017.74 1018.47 1019.20 1019.91
1017.93 1017.43 1016.93 1016.40 1015.84 1015.27 1014.69 1014.10 1013.53 1012.96 1012.39 1011.83 1011.24 1010.63 1010.00 1009.34 1008.69 1008.09 1007.58 1007.23 1007.07 1007.15 1007.49 1008.08 1008.89 1009.89 1011.00 1012.16 1013.31 1014.40 1015.40 1016.30 1017.10 1017.82 1018.50 1019.14 1019.78 1020.41
1018.80 1018.36 1017.91 1017.43 1016.92 1016.40 1015.86 1015.33 1014.80 1014.27 1013.74 1013.18 1012.60 1011.96 1011.27 1010.55 1009.82 1009.13 1008.53 1008.08 1007.84 1007.86 1008.16 1008.73 1009.55 1010.56 1011.70 1012.90 1014.08 1015.20 1016.22 1017.11 1017.89 1018.57 1019.18 1019.76 1020.31 1020.87
1019.74 1019.34 1018.92 1018.47 1018.00 1017.51 1017.02 1016.53 1016.05 1015.56 1015.07 1014.55 1013.98 1013.35 1012.65 1011.89 1011.11 1010.35 1009.68 1009.15 1008.83 1008.77 1009.00 1009.51 1010.29 1011.27 1012.39 1013.59 1014.78 1015.90 1016.92 1017.82 1018.58 1019.24 1019.81 1020.33 1020.83 1021.32
1020.73 1020.35 1019.96 1019.53 1019.08 1018.62 1018.16 1017.71 1017.27 1016.84 1016.39 1015.92 1015.39 1014.79 1014.11 1013.35 1012.56 1011.77 1011.05 1010.46 1010.06 1009.92 1010.06 1010.49 1011.18 1012.09 1013.16 1014.31 1015.47 1016.58 1017.58 1018.46 1019.22 1019.86 1020.40 1020.89 1021.34 1021.77
1021.73 1021.37 1020.99 1020.59 1020.16 1019.72 1019.30 1018.88 1018.48 1018.10 1017.71 1017.30 1016.82 1016.28 1015.65 1014.93 1014.17 1013.38 1012.65 1012.02 1011.57 1011.35 1011.40 1011.72 1012.30 1013.10 1014.07 1015.14 1016.23 1017.29 1018.26 1019.12 1019.85 1020.47 1020.99 1021.44 1021.85 1022.23
1022.70 1022.38 1022.02 1021.63 1021.23 1020.82 1020.42 1020.04 1019.69 1019.36 1019.02 1018.67 1018.27 1017.80 1017.24 1016.60 1015.89 1015.16 1014.45 1013.82 1013.34 1013.06 1013.02 1013.23 1013.69 1014.37 1015.21 1016.15 1017.14 1018.10 1019.01 1019.81 1020.50 1021.08 1021.57 1021.99 1022.35 1022.68
1023.61 1023.31 1022.99 1022.64 1022.27 1021.89 1021.53 1021.18 1020.87 1020.58 1020.30 1020.01 1019.69 1019.30 1018.83 1018.29 1017.67 1017.02 1016.38 1015.79 1015.31 1015.01 1014.90 1015.02 1015.35 1015.88 1016.57 1017.36 1018.21 1019.05 1019.84 1020.55 1021.17 1021.70 1022.13 1022.50 1022.81 1023.09
1024.40 1024.14 1023.86 1023.55 1023.22 1022.89 1022.56 1022.26 1021.98 1021.73 1021.50 1021.27 1021.01 1020.71 1020.34 1019.91 1019.41 1018.87 1018.32 1017.80 1017.37 1017.07 1016.93 1016.96 1017.18 1017.57 1018.10 1018.72 1019.40 1020.08 1020.73 1021.32 1021.83 1022.27 1022.63 1022.94 1023.19 1023.41
1025.02 1024.82 1024.59 1024.33 1024.06 1023.77 1023.48 1023.21 1022.97 1022.74 1022.55 1022.36 1022.16 1021.94 1021.66 1021.34 1020.97 1020.55 1020.12 1019.71 1019.35 1019.08 1018.93 1018.92 1019.05 1019.30 1019.67 1020.12 1020.62 1021.12 1021.61 1022.05 1022.44 1022.77 1023.05 1023.27 1023.46 1023.62
1025.45 1025.30 1025.13 1024.93 1024.71 1024.47 1024.22 1023.98 1023.76 1023.56 1023.38 1023.22 1023.07 1022.90 1022.72 1022.49 1022.24 1021.95 1021.65 1021.35 1021.08 1020.88 1020.74 1020.71 1020.76 1020.91 1021.14 1021.43 1021.75 1022.08 1022.40 1022.70 1022.95 1023.17 1023.35 1023.50 1023.62 1023.72
1025.67 1025.58 1025.46 1025.32 1025.15 1024.96 1024.74 1024.53 1024.32 1024.13 1023.96 1023.82 1023.69 1023.56 1023.44 1023.30 1023.14 1022.97 1022.79 1022.60 1022.44 1022.30 1022.21 1022.17 1022.19 1022.26 1022.38 1022.53 1022.70 1022.88 1023.06 1023.21 1023.35 1023.46 1023.55 1023.63 1023.69 1023.74
1025.69 1025.63 1025.57 1025.47 1025.35 1025.19 1025.01 1024.82 1024.62 1024.43 1024.26 1024.12 1024.00 1023.90 1023.81 1023.73 1023.65 1023.57 1023.49 1023.41 1023.34 1023.27 1023.23 1023.21 1023.21 1023.24 1023.29 1023.35 1023.41 1023.48 1023.54 1023.59 1023.63 1023.67 1023.70 1023.72 1023.74 1023.75
1025.51 1025.48 1025.44 1025.38 1025.29 1025.17 1025.01 1024.84 1024.65 1024.47 1024.30 1024.15 1024.03 1023.94 1023.88 1023.84 1023.82 1023.80 1023.79 1023.79 1023.79 1023.80 1023.80 1023.81 1023.83 1023.84 1023.85 1023.86 1023.87 1023.87 1023.86 1023.85 1023.84 1023.83 1023.83 1023.82 1023.82 1023.81
Thickness
5271 5282 5291 5301 5310 5324 5345 5367 5389 5415 5446 5477 5496 5518 5533 5548 5560 5568 5576 5584 5591 5599 5606 5614 5622 5627 5632 5636 5639 5641 5641 5640 5638 5636 5634 5633 5631 5631
5260 5272 5282 5292 5302 5316 5334 5354 5376 5399 5426 5459 5479 5499 5515 5531 5546 5556 5564 5571 5579 5587 5596 5604 5612 5619 5624 5628 5632 5635 5636 5634 5632 5629 5627 5625 5623 5622
5250 5262 5274 5285 5298 5313 5329 5347 5367 5388 5414 5441 5459 5480 5497 5513 5529 5541 5550 5560 5568 5577 5585 5594 5602 5610 5616 5620 5624 5626 5628 5627 5625 5621 5618 5616 5614 5612
5240 5253 5267 5280 5293 5309 5324 5342 5360 5380 5403 5426 5446 5463 5481 5497 5513 5527 5538 5548 5557 5566 5574 5583 5592 5600 5607 5612 5615 5617 5618 5617 5615 5612 5608 5607 5604 5601
5231 5244 5258 5272 5288 5304 5320 5337 5355 5374 5393 5414 5434 5451 5468 5484 5499 5513 5525 5535 5545 5554 5562 5572 5581 5589 5596 5601 5604 5605 5606 5606 5603 5598 5595 5593 5592 5590
5222 5235 5249 5264 5279 5297 5315 5331 5348 5365 5383 5403 5423 5439 5455 5470 5485 5499 5511 5523 5533 5541 5549 5559 5567 5575 5583 5588 5592 5592 5590 5588 5585 5582 5580 5579 5577 5577
5213 5225 5240 5255 5269 5285 5303 5319 5337 5354 5371 5390 5409 5426 5440 5455 5471 5487 5499 5510 5518 5527 5535 5544 5553 5560 5564 5568 5571 5574 5573 5571 5569 5566 5564 5562 5561 5561
5203 5216 5230 5245 5257 5271 5287 5303 5321 5338 5354 5371 5391 5409 5423 5437 5454 5470 5485 5497 5507 5516 5525 5528 5536 5540 5545 5549 5552 5554 5554 5553 5551 5549 5548 5547 5545 5545
5193 5205 5219 5233 5246 5258 5273 5288 5302 5318 5335 5349 5366 5383 5400 5418 5436 5457 5474 5486 5495 5506 5513 5513 5517 5522 5526 5528 5531 5533 5534 5533 5533 5533 5531 5530 5529 5528
5183 5195 5208 5221 5236 5247 5260 5273 5286 5300 5316 5332 5348 5364 5382 5401 5418 5436 5456 5470 5480 5488 5498 5498 5498 5503 5507 5508 5510 5514 5515 5515 5515 5515 5514 5512 5511 5512
5171 5184 5198 5211 5226 5237 5249 5262 5274 5286 5300 5316 5332 5347 5364 5384 5402 5420 5437 5457 5467 5467 5475 5480 5479 5483 5483 5485 5488 5492 5495 5496 5496 5497 5496 5496 5496 5495
5158 5171 5185 5199 5213 5225 5236 5250 5262 5272 5287 5303 5318 5334 5349 5364 5378 5392 5410 5436 5453 5452 5455 5464 5463 5468 5457 5454 5464 5469 5472 5473 5474 5475 5476 5477 5478 5478
5146 5157 5170 5184 5198 5211 5223 5235 5247 5258 5272 5286 5301 5315 5329 5343 5356 5369 5386 5407 5427 5435 5440 5450 5449 5448 5448 5437 5436 5443 5449 5451 5451 5453 5455 5458 5460 5462
5135 5146 5158 5170 5182 5196 5208 5220 5233 5245 5258 5271 5284 5295 5307 5320 5334 5349 5365 5383 5399 5412 5423 5434 5437 5439 5439 5429 5420 5420 5425 5429 5432 5434 5437 5439 5442 5444
5126 5138 5148 5158 5168 5180 5192 5205 5217 5229 5242 5254 5265 5275 5286 5299 5316 5333 5349 5364 5381 5393 5403 5413 5420 5423 5424 5419 5410 5407 5408 5408 5413 5417 5419 5421 5423 5425
5117 5126 5135 5146 5156 5166 5177 5188 5200 5212 5223 5235 5247 5259 5272 5286 5300 5314 5329 5344 5358 5367 5376 5385 5393 5400 5398 5396 5397 5393 5394 5394 5395 5400 5403 5404 5406 5409
5109 5115 5124 5134 5144 5154 5164 5174 5185 5196 5207 5219 5231 5245 5258 5271 5282 5294 5307 5319 5330 5340 5348 5354 5362 5369 5373 5375 5374 5374 5376 5378 5380 5383 5386 5388 5391 5394
5102 5106 5113 5121 5130 5140 5150 5161 5171 5181 5192 5203 5214 5227 5240 5252 5264 5275 5285 5295 5304 5313 5321 5330 5340 5349 5352 5348 5350 5355 5359 5362 5365 5369 5373 5376 5377 5380
5096 5098 5103 5110 5118 5128 5138 5148 5159 5168 5178 5188 5199 5210 5222 5234 5246 5257 5267 5276 5283 5291 5298 5308 5319 5331 5336 5332 5326 5335 5342 5347 5352 5355 5358 5362 5364 5367
5091 5093 5097 5103 5111 5119 5129 5139 5149 5158 5168 5177 5186 5195 5206 5217 5229 5239 5249 5257 5265 5272 5279 5286 5295 5303 5312 5317 5318 5319 5326 5332 5336 5340 5344 5348 5352 5356
5090 5092 5094 5098 5104 5112 5121 5130 5140 5150 5159 5167 5175 5184 5193 5203 5213 5223 5232 5242 5248 5256 5262 5268 5276 5286 5295 5302 5304 5305 5311 5317 5322 5327 5331 5335 5338 5343
5093 5092 5093 5096 5101 5106 5114 5123 5132 5141 5150 5158 5166 5174 5183 5191 5200 5208 5216 5224 5231 5239 5247 5254 5263 5272 5279 5284 5286 5291 5297 5304 5311 5317 5321 5323 5326 5329
5101 5098 5096 5097 5099 5103 5108 5115 5124 5133 5141 5149 5157 5165 5173 5180 5188 5195 5203 5211 5219 5225 5233 5241 5249 5257 5264 5269 5273 5279 5285 5293 5300 5305 5310 5315 5319 5323